www.pogodaiklimat.ru

Погода и климат >> Архив погоды >> Венгрия >> Захонь


ПОГОДА в Захони

  • Прогноз погоды в Захони
  • Монитор погоды в Захони

АРХИВ ПОГОДЫ в Захони

Время (UTC), дата Ветер
(напр.,м/с)
 
Видим.   Явления Облачность Т
(С)
Тd
(С)
f
(%)
Тe
(С)
Тes
(С)
Комфортность P
(гПа)
Po
(гПа)
Тmin
(С)
Tmax
(С)
R
(мм)
R24
(мм)
S
(см)
16 18.06 С 1 н/о н/о +29.1 +18.8 54 +34 +34 очень
душно
1014.7 1002.7
17 18.06 С 2 н/о н/о +28.2 +18.9 57 +33 +33 очень
душно
1015.0 1003.0
18 18.06 СЗ 1 н/о н/о +27.0 +18.6 60 +32 +32 очень
душно
1015.1 1003.1 +29.7
19 18.06 н/о н/о +24.8 +19.6 73 1015.5 1003.4
20 18.06 В 2 н/о н/о +23.6 +18.9 75 +28 +28 душно 1015.8 1003.6
21 18.06 В 2 н/о н/о +22.1 +17.7 76 +27 +27 душно 1015.7 1003.5
22 18.06 В 2 н/о н/о +21.1 +17.1 78 +25 +25 комфорт 1015.8 1003.5
23 18.06 В 1 н/о н/о +20.2 +17.4 84 +24 +24 комфорт 1015.8 1003.5
00 19.06 В 1 н/о н/о +19.8 +17.0 84 +23 +23 комфорт 1015.5 1003.2
01 19.06 В 2 н/о н/о +19.2 +17.0 87 +22 +22 комфорт 1015.3 1002.9
02 19.06 СВ 1 н/о н/о +19.1 +16.9 87 +22 +22 комфорт 1015.1 1002.7
03 19.06 СВ 1 н/о н/о +19.3 +17.1 87 +22 +22 комфорт 1015.3 1002.9
04 19.06 СВ 1 н/о н/о +19.7 +17.8 89 +23 +23 комфорт 1015.4 1003.1
05 19.06 ЮВ 1 н/о н/о +21.5 +18.1 81 +26 +26 душно 1015.4 1003.1
06 19.06 В 1 н/о н/о +22.3 +18.3 78 +27 +27 душно 1015.3 1003.1 +18.7 0.1
07 19.06 В 1 н/о н/о +25.4 +19.3 69 +31 +31 очень
душно
1014.9 1002.8
08 19.06 ЮВ 2 н/о н/о +26.4 +17.5 58 +31 +31 душно 1014.9 1002.8
09 19.06 ЮВ 1 н/о н/о +28.1 +19.3 59 +34 +34 очень
душно
1014.6 1002.6
10 19.06 ЮВ 2 н/о н/о +28.4 +18.8 56 +34 +34 очень
душно
1014.3 1002.3
11 19.06 В 2 н/о н/о +29.3 +20.5 59 +36 +36 очень
душно
1013.3 1001.4
12 19.06 ЮВ 2 н/о н/о +29.4 +19.1 54 +35 +35 очень
душно
1012.8 1000.9
13 19.06 В 1 н/о н/о +30.4 +20.6 56 +37 +37 очень
душно
1012.3 1000.4
14 19.06 В 1 н/о н/о +28.9 +19.0 55 +34 +34 очень
душно
1012.0 1000.1
15 19.06 Ю 1 н/о н/о +28.4 +18.2 54 +33 +33 очень
душно
1011.5 999.6
16 19.06 З 2
{10}
н/о н/о +24.1 +19.0 73 +29 +29 душно 1012.4 1000.3
17 19.06 Ю 3
{8}
н/о н/о +22.7 +19.9 84 +29 +29 очень
душно
1013.5 1001.3
18 19.06 ЮВ 2
{9}
н/о н/о +20.4 +19.2 93 +25 +25 комфорт 1013.7 1001.4 +30.9 2
19 19.06 ЮВ 2 н/о н/о +19.6 +18.4 93 +23 +23 комфорт 1014.0 1001.7
20 19.06 ЮВ 1 н/о н/о +19.3 +18.3 94 +23 +23 комфорт 1014.0 1001.7
21 19.06 С 1 н/о н/о +19.2 +18.2 94 +22 +22 комфорт 1013.9 1001.6
22 19.06 В 1 н/о н/о +18.8 +18.0 95 +21 +21 комфорт 1014.1 1001.7
23 19.06 штиль 0 н/о н/о +18.8 +18.1 96 +20 +20 1013.6 1001.2
00 20.06 Ю 1 н/о н/о +18.6 +17.8 95 +21 +21 комфорт 1013.3 1000.9 1
01 20.06 штиль 0 н/о н/о +17.9 +17.3 96 +18 +18 1013.4 1001.0
02 20.06 Ю 1 н/о н/о +17.3 +16.7 96 +18 +18 1013.3 1000.9
03 20.06 СЗ 1 н/о н/о +17.0 +16.5 97 +18 +18 1013.2 1000.8
04 20.06 СВ 1 н/о н/о +18.0 +17.5 97 +19 +19 1013.3 1000.9
05 20.06 штиль 0 н/о н/о +19.6 +17.9 90 +22 +22 комфорт 1013.5 1001.2
06 20.06 ЮЗ 1 н/о н/о +21.0 +18.9 88 +27 +27 душно 1013.9 1001.6 +16.9 1
07 20.06 СЗ 1 н/о н/о +23.4 +18.9 76 +30 +30 очень
душно
1013.5 1001.3
08 20.06 ЮВ 1 н/о н/о +24.9 +19.3 71 +30 +30 душно 1013.2 1001.1
09 20.06 В 1 н/о н/о +25.5 +19.4 69 +31 +31 очень
душно
1013.2 1001.1
10 20.06 Ю 2 н/о н/о +27.6 +19.7 62 +33 +33 очень
душно
1013.1 1001.1
11 20.06 ЮВ 2 н/о н/о +28.8 +20.5 61 +36 +36 очень
душно
1012.6 1000.7
12 20.06 ЮЗ 2 н/о н/о +28.7 +18.5 54 +34 +34 очень
душно
1012.0 1000.1
13 20.06 Ю 3 н/о н/о +27.6 +18.9 59 +33 +33 очень
душно
1011.7 999.7
14 20.06 Ю 2 н/о н/о +29.2 +18.9 54 +35 +35 очень
душно
1010.8 998.9
15 20.06 ЮЗ 3 н/о н/о +29.3 +19.0 54 +35 +35 очень
душно
1010.7 998.8
16 20.06 З 1 н/о н/о +28.4 +19.6 59 +34 +34 очень
душно
1010.8 998.9
17 20.06 З 1 н/о н/о +26.5 +20.4 69 +33 +33 очень
душно
1011.3 999.3
18 20.06 З 3 н/о н/о +23.1 +17.8 72 +29 +29 очень
душно
1012.7 1000.5 +29.7
19 20.06 штиль 0 н/о н/о +21.6 +16.6 73 +25 +25 комфорт 1012.5 1000.3
20 20.06 штиль 0 н/о н/о +20.6 +17.6 83 +24 +24 комфорт 1012.6 1000.3
21 20.06 В 2 н/о н/о +19.7 +17.7 88 +23 +23 комфорт 1013.5 1001.2
22 20.06 штиль 0 н/о н/о +20.0 +17.8 87 +23 +23 комфорт 1013.6 1001.3
23 20.06 штиль 0 н/о н/о +19.7 +17.8 89 +22 +22 комфорт 1013.5 1001.2
00 21.06 В 2 н/о н/о +19.2 +17.9 92 +22 +22 комфорт 1013.9 1001.6
01 21.06 В 2 н/о н/о +18.8 +17.5 92 +21 +21 комфорт 1014.0 1001.6
02 21.06 ЮВ 1 н/о н/о +18.2 +17.2 94 +20 +20 1014.0 1001.6
03 21.06 В 1 н/о н/о +17.9 +17.1 95 +19 +19 1014.7 1002.3
04 21.06 В 2 н/о н/о +18.6 +17.4 93 +20 +20 1014.9 1002.5
05 21.06 ЮВ 2 н/о н/о +21.9 +18.9 83 +27 +27 душно 1014.8 1002.6
06 21.06 В 2 н/о н/о +22.2 +18.8 81 +28 +28 душно 1015.4 1003.2 +17.8
07 21.06 ЮВ 2 н/о н/о +23.6 +19.1 76 +28 +28 душно 1015.5 1003.3
08 21.06 ЮВ 2 н/о н/о +24.4 +19.5 74 +30 +30 очень
душно
1015.4 1003.3
09 21.06 ЮВ 1 н/о н/о +26.2 +18.3 62 +31 +31 очень
душно
1015.4 1003.3
10 21.06 ЮВ 1 н/о н/о +27.4 +19.2 61 +33 +33 очень
душно
1014.8 1002.8
11 21.06 Ю 1 н/о н/о +26.9 +19.5 64 +33 +33 очень
душно
1014.9 1002.9
12 21.06 СВ 2
{7}
н/о н/о +24.9 +19.3 71 +30 +30 душно 1014.9 1002.8
13 21.06 С 2
{10}
н/о н/о +22.5 +17.4 73 +27 +27 душно 1015.2 1003.0
14 21.06 ЮВ 1
{10}
н/о н/о +19.9 +17.1 84 +24 +24 комфорт 1015.2 1002.9
15 21.06 З 1 н/о н/о +20.8 +17.0 79 +26 +26 душно 1014.8 1002.5
16 21.06 ЮВ 2 н/о н/о +21.9 +18.1 79 +27 +27 душно 1014.6 1002.4
17 21.06 ЮВ 2 н/о н/о +21.2 +18.4 84 +25 +25 комфорт 1015.0 1002.7
18 21.06 ЮЗ 1 н/о н/о +20.4 +18.2 87 +25 +25 комфорт 1016.0 1003.7 +27.9
19 21.06 штиль 0 н/о н/о +19.4 +18.1 92 +21 +21 комфорт 1016.0 1003.6
20 21.06 С 1 н/о н/о +18.7 +17.5 93 +21 +21 комфорт 1016.1 1003.7
21 21.06 Ю 1 н/о н/о +18.1 +17.3 95 +19 +19 1016.6 1004.2
22 21.06 З 1 н/о н/о +18.2 +17.6 96 +20 +20 1016.6 1004.2
23 21.06 ЮЗ 1 н/о н/о +17.7 +17.2 97 +19 +19 1016.5 1004.1
00 22.06 З 1 н/о н/о +17.5 +17.0 97 +19 +19 1017.0 1004.5
01 22.06 штиль 0 н/о н/о +17.2 +16.6 96 +17 +17 1017.3 1004.8
02 22.06 С 1 н/о н/о +17.4 +16.9 97 +18 +18 1017.4 1004.9
03 22.06 С 1 н/о н/о +17.5 +17.0 97 +19 +19 1017.9 1005.4
04 22.06 С 1 н/о н/о +17.5 +17.0 97 +19 +19 1018.1 1005.6
05 22.06 н/о н/о +18.7 +17.7 94 1018.1 1005.7
06 22.06 СЗ 1 н/о н/о +20.1 +18.2 89 +24 +24 комфорт 1018.3 1005.9 +17.2 0.1
07 22.06 СЗ 2 н/о н/о +21.5 +18.9 85 +26 +26 душно 1018.3 1006.0
08 22.06 СЗ 2 н/о н/о +23.5 +18.4 73 +28 +28 душно 1018.1 1005.9
09 22.06 СЗ 3 н/о н/о +25.1 +18.5 67 +30 +30 душно 1018.5 1006.3
10 22.06 СЗ 2 н/о н/о +26.0 +17.9 61 +30 +30 душно 1018.1 1006.0
11 22.06 С 3 н/о н/о +27.5 +17.9 56 +32 +32 очень
душно
1017.6 1005.6
12 22.06 С 3 н/о н/о +27.5 +17.9 56 +32 +32 очень
душно
1017.0 1005.0
13 22.06 С 3 н/о н/о +28.3 +18.7 56 +33 +33 очень
душно
1016.4 1004.4
14 22.06 В 4
{10}
н/о н/о +24.6 +16.3 60 +28 +28 душно 1016.9 1004.7
15 22.06 В 3
{9}
н/о н/о +20.8 +18.9 89 +25 +25 комфорт 1016.9 1004.6
16 22.06 В 3 н/о н/о +24.7 +19.5 73 +30 +30 очень
душно
1015.8 1003.7
17 22.06 С 2 н/о н/о +23.5 +19.4 78 +29 +29 душно 1016.4 1004.2
18 22.06 С 2 н/о н/о +22.0 +18.4 80 +27 +27 душно 1016.2 1003.9 +29.0 3
19 22.06 С 2 н/о н/о +20.6 +18.0 85 +25 +25 комфорт 1016.0 1003.7
20 22.06 С 2 н/о н/о +19.8 +17.9 89 +23 +23 комфорт 1016.3 1004.0
21 22.06 С 2 н/о н/о +19.8 +17.4 86 +23 +23 комфорт 1016.5 1004.2
22 22.06 С 2 н/о н/о +19.4 +17.2 87 +22 +22 комфорт 1016.7 1004.3
23 22.06 С 2 н/о н/о +18.8 +16.6 87 +21 +21 комфорт 1016.1 1003.7
00 23.06 С 1 н/о н/о +18.4 +16.2 87 +20 +20 1015.8 1003.4
01 23.06 СЗ 1 н/о н/о +17.7 +16.2 91 +19 +19 1016.1 1003.7
02 23.06 С 1 н/о н/о +17.0 +16.0 94 +18 +18 1015.7 1003.2
03 23.06 С 2 н/о н/о +17.5 +16.2 92 +18 +18 1015.4 1003.0
04 23.06 С 1 н/о н/о +18.6 +16.8 89 +21 +21 комфорт 1015.8 1003.4
05 23.06 С 2 н/о н/о +20.4 +17.4 83 +24 +24 комфорт 1015.9 1003.6
06 23.06 С 2 н/о н/о +23.0 +17.9 73 +28 +28 душно 1015.7 1003.5 +17.0
07 23.06 СВ 2 н/о н/о +24.8 +19.0 70 +30 +30 душно 1015.5 1003.4
08 23.06 В 2 н/о н/о +27.1 +18.9 61 +32 +32 очень
душно
1015.3 1003.3
09 23.06 В 2 н/о н/о +25.7 +18.6 65 +31 +31 очень
душно
1015.5 1003.4
10 23.06 В 1 н/о н/о +26.7 +19.3 64 +32 +32 очень
душно
1015.5 1003.4
11 23.06 В 2 н/о н/о +28.0 +17.5 53 +32 +32 душно 1015.2 1003.2
12 23.06 СВ 2 н/о н/о +28.3 +18.4 55 +33 +33 очень
душно
1014.8 1002.8
13 23.06 С 2 н/о н/о +28.3 +18.7 56 +33 +33 очень
душно
1014.4 1002.4
14 23.06 В 6
{10}
н/о н/о +27.2 +17.9 57 +32 +32 очень
душно
1014.7 1002.7
15 23.06 С 2
{10}
н/о н/о +23.5 +18.8 75 +28 +28 душно 1014.7 1002.5
16 23.06 С 2 н/о н/о +23.4 +18.9 76 +30 +30 очень
душно
1015.1 1002.9
17 23.06 СЗ 3 н/о н/о +23.7 +19.4 77 +29 +29 душно 1015.8 1003.6
18 23.06 С 2 н/о н/о +23.3 +19.0 77 +30 +30 очень
душно
1015.2 1003.0 +30.3 0.1
19 23.06 С 2 н/о н/о +22.4 +19.0 81 +28 +28 душно 1015.4 1003.2
20 23.06 С 2 н/о н/о +21.7 +18.5 82 +26 +26 душно 1016.0 1003.7
21 23.06 С 2 н/о н/о +21.2 +17.8 81 +25 +25 комфорт 1016.0 1003.7
22 23.06 С 2 н/о н/о +20.6 +17.4 82 +25 +25 комфорт 1016.1 1003.8
23 23.06 С 2 н/о н/о +20.6 +17.0 80 +25 +25 комфорт 1016.6 1004.3
00 24.06 СЗ 1 н/о н/о +19.7 +16.7 83 +23 +23 комфорт 1017.1 1004.7
01 24.06 С 2 н/о н/о +19.5 +16.2 81 +22 +22 комфорт 1017.1 1004.7
02 24.06 С 2 н/о н/о +18.9 +16.1 84 +21 +21 комфорт 1016.8 1004.4
03 24.06 С 2 н/о н/о +19.2 +16.4 84 +21 +21 комфорт 1016.8 1004.4
04 24.06 С 2 н/о н/о +20.3 +17.3 83 +24 +24 комфорт 1017.2 1004.9
05 24.06 С 2 н/о н/о +22.9 +18.0 74 +28 +28 душно 1017.1 1004.9
06 24.06 С 3
{7}
н/о н/о +24.7 +18.6 69 +28 +28 душно 1017.3 1005.1 +18.8
07 24.06 С 3
{7}
н/о н/о +26.6 +18.2 60 +31 +31 душно 1017.7 1005.6
08 24.06 СВ 3
{7}
н/о н/о +27.8 +18.2 56 +33 +33 очень
душно
1018.0 1006.0
09 24.06 СВ 3
{7}
н/о н/о +28.5 +16.4 48 +32 +32 душно 1018.1 1006.1
10 24.06 В 2 н/о н/о +30.8 +17.1 44 +35 +35 очень
душно
1018.2 1006.3
11 24.06 СВ 3
{8}
н/о н/о +30.4 +17.1 45 +34 +34 очень
душно
1018.3 1006.4
12 24.06 СВ 3
{8}
н/о н/о +30.6 +16.6 43 +34 +34 очень
душно
1018.4 1006.5
13 24.06 СВ 2 н/о н/о +30.7 +18.1 47 +35 +35 очень
душно
1018.5 1006.6
14 24.06 СВ 3
{7}
н/о н/о +30.2 +18.0 48 +35 +35 очень
душно
1018.6 1006.6
15 24.06 СВ 3 н/о н/о +30.2 +18.0 48 +35 +35 очень
душно
1018.8 1006.8
16 24.06 СВ 2 н/о н/о +28.5 +18.9 56 +34 +34 очень
душно
1019.0 1007.0
17 24.06 СВ 2
{7}
н/о н/о +26.4 +20.5 70 +33 +33 очень
душно
1019.6 1007.5
18 24.06 С 3 н/о н/о +25.3 +18.5 66 +30 +30 душно 1020.5 1008.3 +31.6 0.1
19 24.06 С 2 н/о н/о +23.9 +18.1 70 +28 +28 душно 1021.3 1009.1
20 24.06 С 2 н/о н/о +22.5 +18.1 76 +28 +28 душно 1022.3 1010.0
21 24.06 С 2 н/о н/о +21.6 +17.6 78 +26 +26 душно 1022.7 1010.4
22 24.06 С 2 н/о н/о +20.8 +17.6 82 +25 +25 комфорт 1022.9 1010.5
23 24.06 СЗ 2 н/о н/о +20.3 +17.3 83 +24 +24 комфорт 1022.8 1010.4
00 25.06 С 1 н/о н/о +19.6 +17.2 86 +23 +23 комфорт 1023.1 1010.7
01 25.06 С 2 н/о н/о +19.4 +17.2 87 +22 +22 комфорт 1023.2 1010.8
02 25.06 С 2 н/о н/о +18.9 +16.9 88 +21 +21 комфорт 1023.1 1010.6
03 25.06 С 1 н/о н/о +18.5 +16.7 89 +20 +20 1023.2 1010.7
04 25.06 С 2 н/о н/о +19.5 +17.1 86 +22 +22 комфорт 1023.5 1011.1
05 25.06 С 2 н/о н/о +21.6 +18.0 80 +26 +26 душно 1024.0 1011.6
06 25.06 С 2 н/о н/о +24.2 +18.8 72 +29 +29 душно 1024.2 1011.9 +18.5
07 25.06 СВ 1 н/о н/о +26.3 +18.7 63 +31 +31 душно 1024.1 1011.9
08 25.06 В 2 н/о н/о +28.2 +19.4 59 +34 +34 очень
душно
1024.3 1012.2
09 25.06 СВ 2 н/о н/о +29.3 +19.0 54 +35 +35 очень
душно
1024.3 1012.2
10 25.06 В 2 н/о н/о +30.0 +17.1 46 +34 +34 очень
душно
1024.4 1012.4
11 25.06 С 2 н/о н/о +31.0 +18.0 46 +35 +35 очень
душно
1024.4 1012.4
12 25.06 В 1 н/о н/о +32.1 +16.8 40 +35 +35 очень
душно
1024.1 1012.2
13 25.06 ЮВ 1 н/о н/о +32.6 +15.2 35 +35 +35 душно 1023.8 1011.9
14 25.06 СЗ 2 н/о н/о +32.0 +15.9 38 +35 +35 очень
душно
1023.5 1011.6
15 25.06 ЮВ 1 н/о н/о +32.4 +15.4 36 +35 +35 душно 1023.1 1011.2
16 25.06 З 1 н/о н/о +32.2 +16.1 38 +35 +35 очень
душно
1023.1 1011.2
17 25.06 З 1 н/о н/о +31.8 +16.9 41 +35 +35 очень
душно
1022.9 1011.0

 

Местоположение метеостанции Захонь (Венгрия): широта 48.40 долгота 22.17 высота над уровнем моря 104 м.

В архиве по умолчанию представлена погода в Захони за последнюю неделю. Архивные данные за месяц целиком и за предыдущие месяцы, начиная с января 2011 года, Вы можете получить, выбрав интересующий диапазон дат из раскрывающегося списка и нажав кнопку "Ввод!".


*Определитесь, кто Вы:
робот инопланетянин человек

Внимание! Время в таблицах - всемирное. Для получения местного времени необходимо прибавить поправку, которая равна 1 ч.

Смотрите также архив погоды в соседних городах и на ближайших метеорологических станциях:

Погода в Ужгороде (Закарпатская область, Украина) (27 км)
Погода в Берегове (Закарпатская область, Украина) (39 км)
Погода в Перечине (Закарпатская область, Украина) (43 км)
Погода в Мильхостове (Словакия) (44 км)
Погода в Ньиредьхазе (Венгрия) (52 км)
Погода в Великом Березном (Закарпатская область, Украина) (60 км)
Погода в Каменице-над-Сирочью (Словакия) (60 км)
Погода в Кошице (Словакия) (76 км)
Погода в Плае (Черновицкая область, Украина) (80 км)
Погода в Сату-Маре (Румыния) (92 км)

Пояснения к столбцам:

Ветер - указаны скорость ветра в м/с - средняя за 10 мин, порывы в срок и между сроками (в фигурных скобках) и направление, откуда дует ветер: С - северный, СВ - северо-восточный, В - восточный, ЮВ - юго-восточный, Ю - южный, ЮЗ - юго-западный, З - западный, СЗ - северо-западный.
Видимость - горизонтальная дальность видимости в метрах или километрах. При видимости от 1 до 10 км при отсутствии осадков обычно наблюдается дымка, при ухудшении видимости до 1 км и менее - туман. В сухую погоду видимость может ухудшаться дымом, пылью или мглою.
Явления - указаны атмосферные явления, наблюдавшиеся в срок или в последний час перед сроком; фигурными скобками обозначены явления, наблюдавшиеся между сроками (за 1-3 часа до срока); квадратными скобками обозначены град или гололедные отложения с указанием их диаметра в мм.
Облачность - указаны через наклонную черту общая и нижняя облачность в баллах и высота нижней границы облаков в метрах; квадратными скобками обозначены формы облаков: Ci - перистые, Cs - перисто-слоистые, Cc - перисто-кучевые, Ac - высококучевые, As - высокослоистые, Sc - слоисто-кучевые, Ns - слоисто-дождевые, Cu - кучевые, Cb - кучево-дождевые. Подробнее классификацию облаков см. в Атласе облаков (PDF).
T - Температура воздуха - температура, измеренная на высоте 2 м над землей.
Td - Температура точки росы - температура, при понижении до которой содержащийся в воздухе водяной пар достигнет насыщения.
f - Относительная влажность воздуха - влажноcть воздуха, измеренная на высоте 2 м над землей.
Te - Эффективная температура - температура, которую ощущает одетый по сезону человек в тени. Характеристика душности погоды. При расчете учитывается влияние влажности воздуха и скорости ветра на теплоощущения человека.
Tes - Эффективная температура на солнце - температура, которую ощущает человек, с поправкой на солнечный нагрев. Характеристика знойности погоды. Зависит от высоты солнца над горизонтом, облачности и скорости ветра. Ночью, в пасмурную погоду, а также при ветре 12 м/с и более поправка равна нулю.
P - Атмосферное давление - приведенное к уровню моря атмосферное давление.
Po - Атмосферное давление - измеренное на уровне метеостанции атмосферное давление.
Tmin - Минимальная температура - минимум температуры воздуха на высоте 2 м над землей.
Tmax - Максимальная температура - максимум температуры воздуха на высоте 2 м над землей.
R - Количество осадков - Количество выпавших осадков за период времени, мм. При наведении курсора мыши на число - период времени, за который выпало указанное количество осадков.
R24 - Количество осадков - Количество выпавших осадков за 24 часа, мм.
S - Снежный покров - Высота снежного покрова, см. При наведении курсора мыши на число - состояние снежного покрова и степень покрытия местности в баллах.